DTTF

Details ICAO DTTF (GAF)
Name GAFSA
Region Tunisia
Timezone Africa/Tunis (UTC+1.0)
Plans Departing 5
Arriving 4
Stats Elevation 1,060 ft / 323 m (AMSL)
Location 34.422153° 8.822546°
Runways 1
Magnetic Variation 2.078° E
Sunrise 2018-05-21 04:19:58 UTC / 2018-05-21 05:19:58 Local
Sunset 2018-05-21 18:25:29 UTC / 2018-05-21 19:25:29 Local
Advertisement - Login to hide

Runways

ID Width Length Bearing (true) Bearing (mag) Surface Threshold Offset Overrun Length
05 148 ft / 45 m 9,560 ft / 2,914 m 48.37° 46.29° Asphalt 0 ft / 0 m 213 ft / 65 m
23 148 ft / 45 m 9,560 ft / 2,914 m 228.39° 226.31° Asphalt 0 ft / 0 m 180 ft / 55 m

Map

Weather


0- 5 10 15 20 25 30 35+ Temperature / ° C

Clouds and Precipitation
Forecast for 2018-05-21 00:00 UTC. Updated an hour ago

Ground ~20,000 ft ~40,000 ft Winds

METAR

DTTF 210000Z 04011KT 8000 FEW023 19/18 Q1011 NOSIG

TAF

Not found

Frequencies

Tower 122.10 MHz TWR
Approach 122.10 MHz APP
Warning: Do not use this data for real-world aviation or navigation. No guarantee of current accuracy is given.